Temperature
26 23 22 23 24 25 25 24 23 23 23 21 20 19 19 18 18 18 18 18 18 18 19 19 19 19 19 19 19 19 19 18 18 18 18 17 17 17 17 16 16 16 16 16
24 23 25 26 26 26 25 24 23 23 23 21 19 19 19 19 18 18 18 18 19 19 19 19 19 19 19 19 19 19 19 18 18 18 18 17 17 17 16 16 16 16 15 15
24 25 28 28 27 26 25 24 23 22 22 21 20 19 19 18 18 19 19 19 19 19 19 19 19 19 19 19 19 19 19 18 18 18 17 17 17 16 16 16 16 15 15 15
25 27 28 27 27 26 24 25 24 23 20 19 20 18 18 18 18 18 18 19 19 19 19 19 19 19 19 19 19 19 19 19 18 18 17 17 17 16 16 16 15 15 15 14
25 27 27 27 27 26 24 24 23 22 19 18 18 18 18 18 18 18 18 19 19 20 20 20 20 20 20 20 19 19 19 18 18 18 17 17 17 16 16 15 15 15 14 14
26 26 26 27 27 26 24 22 20 18 17 18 18 18 18 17 18 19 19 19 20 20 20 20 20 20 20 20 19 19 19 18 18 17 17 17 16 16 15 15 15 14 14 14
25 25 26 26 26 25 24 21 19 19 18 18 19 19 18 19 20 20 20 20 21 20 20 20 20 20 20 20 20 19 19 18 18 17 17 17 16 16 15 15 15 14 14 14
23 23 25 25 25 24 24 21 20 20 19 18 18 19 19 21 21 22 21 21 21 21 21 21 21 21 20 20 20 19 19 18 18 17 17 16 16 15 15 15 14 14 14 13
23 23 26 26 26 25 24 22 21 19 18 18 18 19 20 21 21 21 21 21 21 21 21 21 21 21 21 21 20 20 19 19 18 17 17 16 16 15 15 14 14 14 14 13
22 23 25 26 25 25 24 23 19 19 19 19 19 19 18 21 21 21 21 21 22 22 22 22 22 22 22 21 21 20 19 19 18 18 17 16 16 15 15 14 14 14 13 13
23 22 23 23 23 24 23 23 20 18 18 18 18 19 20 20 20 20 21 22 23 23 22 22 22 22 22 21 21 20 19 19 18 18 17 16 16 15 15 14 14 14 13 13
23 20 21 22 23 23 23 23 20 20 20 18 18 19 22 21 21 21 22 23 24 24 23 23 23 22 22 21 21 20 20 19 19 18 17 17 16 15 15 15 14 14 13 13
22 20 20 21 21 22 23 23 21 18 18 18 18 20 22 21 21 22 23 24 24 24 23 23 23 22 22 21 21 21 20 19 19 18 17 17 16 16 15 15 14 14 14 13
22 20 20 21 21 21 22 23 23 20 19 19 20 21 22 21 21 22 24 24 24 24 23 23 22 22 22 22 21 21 20 19 19 18 17 17 16 16 15 15 14 14 14 13
20 20 21 21 22 22 23 24 24 22 21 20 21 21 21 21 21 23 24 24 24 23 23 23 23 22 22 22 21 20 20 19 19 18 17 17 16 16 15 15 15 14 14 13
18 20 21 22 23 23 23 24 24 24 23 22 22 22 21 22 23 23 24 24 23 23 23 23 23 23 22 22 21 21 20 19 19 18 18 17 17 16 16 15 15 14 14 13
17 18 19 19 21 22 21 22 23 22 20 20 20 20 20 20 21 23 24 24 24 24 24 23 23 23 23 22 22 21 20 20 19 18 18 17 17 16 16 15 15 14 14 14
17 17 16 18 20 21 21 21 22 21 19 19 19 19 19 20 23 24 25 25 25 25 24 24 24 23 23 22 22 21 20 20 19 18 18 17 17 16 16 15 15 15 14 14
17 17 17 17 18 20 21 20 20 20 18 17 18 18 19 21 22 22 23 24 25 25 25 25 24 24 23 22 22 21 20 20 19 19 18 18 17 16 16 16 15 15 15 14
16 16 16 17 18 19 20 20 20 20 18 17 17 17 18 19 18 19 22 23 24 24 24 24 24 23 23 22 22 21 21 20 19 19 19 18 17 17 16 16 16 15 15 14
17 16 16 16 17 18 18 18 19 19 18 16 17 17 18 16 17 19 21 22 23 23 23 24 23 23 23 22 21 21 20 20 20 19 18 18 17 17 16 16 15 15 15 14
16 16 16 15 16 17 17 17 17 16 16 16 17 18 18 18 18 19 20 21 21 22 22 22 22 22 22 22 21 21 20 20 19 18 18 17 17 16 16 16 15 15 15 14
16 16 15 15 15 16 16 16 17 17 17 17 18 18 18 18 17 18 19 19 20 20 21 21 21 21 21 20 20 20 20 19 18 18 17 17 16 16 15 15 15 15 14 14
16 15 14 14 15 15 16 17 18 18 18 18 18 18 18 17 17 17 18 18 18 19 19 19 20 20 19 19 19 19 19 18 17 17 17 16 16 15 15 15 14 14 14 14
17 15 14 14 15 15 16 17 18 18 18 17 17 17 17 16 16 16 16 17 17 17 18 18 18 18 18 18 18 17 17 17 17 16 16 15 15 15 14 14 14 13 13 13
16 15 15 15 15 14 16 18 18 17 17 17 17 16 16 16 16 16 16 16 16 16 16 16 16 16 16 16 16 16 16 15 15 15 15 14 14 14 13 13 13 13 13 13
Wind_Speed
4 0 7 12 11 10 6 3 3 3 3 3 3 2 3 3 4 4 5 7 9 8 6 6 8 10 10 9 9 8 8 6 5 4 4 4 3 3 3 3 7 8 8 8
4 8 16 14 10 6 3 3 2 1 2 3 2 1 2 3 4 6 7 7 8 7 6 6 7 8 8 8 8 7 8 7 6 4 4 3 3 2 2 2 4 6 7 7
9 12 11 4 2 1 1 4 4 4 3 4 4 2 2 2 2 4 5 6 7 11 12 11 10 8 9 9 9 9 8 7 7 6 4 4 4 4 3 2 1 1 4 6
7 8 5 3 2 2 1 3 6 6 5 1 2 1 4 4 3 6 7 8 10 11 11 11 11 10 10 10 9 9 9 8 7 6 6 6 4 3 2 2 1 1 1 3
6 3 3 2 2 2 4 4 4 4 5 3 3 1 5 4 6 9 11 12 12 12 13 13 13 12 11 11 10 9 9 8 7 7 7 7 5 4 2 2 1 0 1 1
5 3 2 4 2 4 8 5 6 6 5 3 2 1 5 6 10 11 13 13 14 13 14 13 13 11 10 10 9 9 9 8 8 8 8 8 7 5 4 2 1 0 1 1
6 6 4 2 1 2 5 5 4 6 5 2 3 2 8 9 8 11 14 14 15 15 14 13 13 13 12 12 11 11 11 9 8 8 8 8 8 7 5 4 3 2 1 1
2 8 6 2 4 4 2 7 6 4 3 3 3 4 8 7 7 9 11 13 14 14 14 15 15 15 15 15 13 12 12 10 9 9 8 7 8 5 4 5 4 4 3 2
4 7 5 3 2 5 1 1 6 7 3 1 3 6 8 2 4 7 11 13 15 16 16 16 16 15 15 14 14 14 13 10 10 9 8 7 7 7 6 5 4 3 3 3
6 5 5 2 3 2 4 4 5 5 5 2 3 5 5 6 7 8 10 14 15 16 16 16 16 15 13 13 12 13 12 11 9 10 9 7 7 7 7 5 5 4 4 3
3 4 3 3 2 4 1 1 4 4 5 6 4 7 8 12 11 11 13 15 16 17 17 16 14 13 12 12 12 12 11 10 10 10 8 8 7 7 7 6 6 5 4 4
1 4 1 4 4 2 3 4 6 4 3 5 5 8 8 12 13 13 14 15 15 16 16 14 13 13 13 13 13 12 12 11 11 10 9 9 8 7 7 6 6 5 5 5
1 4 2 6 7 4 2 3 5 6 4 4 5 7 5 7 10 12 13 14 13 13 12 12 13 14 14 13 13 12 12 12 10 9 9 8 8 8 7 7 6 6 6 6
3 4 6 7 8 5 5 5 3 5 3 5 8 8 6 8 10 10 10 11 11 12 14 14 13 13 13 13 13 12 11 10 10 9 9 9 9 9 8 8 7 7 7 6
4 2 4 6 6 4 5 7 6 6 8 9 10 9 12 13 13 11 10 10 10 11 13 15 15 13 12 12 11 11 11 10 10 10 10 10 9 9 8 8 7 7 7 7
3 1 2 5 5 3 5 8 7 6 5 5 4 6 8 8 7 7 9 11 12 13 15 15 15 14 14 14 13 11 11 10 10 11 10 9 9 8 8 8 8 7 7 7
3 4 1 5 7 4 5 6 3 1 4 2 0 5 3 3 8 10 11 12 13 14 14 15 16 16 16 15 14 14 12 10 11 11 10 9 9 9 9 8 8 8 8 7
6 4 3 1 4 4 6 3 2 6 6 6 3 4 3 3 6 6 7 10 12 13 14 15 14 14 13 13 12 12 11 11 11 11 10 9 9 9 9 8 8 8 6 7
5 6 3 2 2 6 5 4 3 2 3 8 7 7 6 4 5 4 2 3 9 12 12 13 14 13 13 13 13 12 11 11 11 11 11 10 10 9 9 9 9 7 6 7
3 4 4 3 3 5 5 6 6 3 1 6 7 9 9 8 4 3 6 3 2 5 7 9 10 9 11 12 11 12 12 11 13 13 12 10 10 10 10 10 9 7 7 8
1 1 3 4 4 6 4 7 5 3 3 3 3 6 8 4 1 4 5 4 2 0 3 6 8 9 11 10 11 11 10 12 12 9 8 8 9 10 10 9 7 7 7 8
5 3 2 3 3 6 3 2 2 5 3 2 2 4 5 4 6 7 7 7 7 6 3 2 5 5 5 8 11 10 10 10 7 7 7 7 8 7 7 7 7 7 8 8
4 6 5 5 6 4 3 3 3 4 4 3 3 5 5 5 6 6 7 8 7 7 5 4 3 2 1 3 7 9 8 6 5 6 6 5 6 6 6 6 7 6 6 7
3 3 4 2 3 3 4 3 2 3 3 3 5 6 7 6 4 6 7 7 8 7 6 5 6 5 2 0 3 5 4 5 5 5 5 4 4 5 6 6 6 6 7 8
5 5 4 3 2 1 5 4 3 3 5 8 9 9 8 8 8 7 7 7 7 7 7 7 7 6 4 3 2 0 2 5 5 4 4 4 5 5 6 6 7 8 9 10
2 6 8 8 9 7 5 4 5 8 8 8 10 11 9 9 8 8 7 6 7 7 8 9 9 8 7 7 5 4 1 2 3 3 3 4 4 5 5 6 8 12 14 17
Wind_Direction
288 61 256 249 231 221 242 203 226 241 189 120 155 187 201 182 179 171 174 168 174 176 175 157 148 140 133 132 133 139 137 142 133 122 120 119 129 139 139 160 154 146 136 124
327 271 256 256 255 244 229 159 200 263 141 122 129 135 193 181 189 187 184 184 177 166 156 157 149 150 146 147 147 147 147 150 146 140 142 143 139 136 139 136 147 153 147 142
226 252 267 279 270 168 186 164 184 171 112 75 98 37 264 249 192 200 202 194 182 174 170 170 168 167 161 161 165 161 159 156 153 143 121 97 80 71 69 83 122 176 161 155
248 266 295 356 357 129 214 162 141 133 116 78 93 228 260 223 224 214 207 198 191 184 176 175 173 175 176 177 172 164 164 159 153 141 132 130 131 135 163 169 179 231 164 164
261 287 337 318 262 109 151 113 89 101 115 84 35 109 273 201 216 215 208 203 198 190 181 183 183 183 182 179 175 171 166 160 155 146 139 129 129 142 143 123 111 14 347 84
258 277 242 243 254 142 135 87 57 49 69 51 297 179 268 215 209 204 206 201 196 192 189 189 188 183 182 180 177 171 166 165 161 151 144 142 144 145 133 122 118 23 18 38
317 307 285 234 23 51 116 95 27 2 16 278 274 223 251 235 218 194 195 196 194 192 190 189 187 185 187 187 184 176 169 168 166 155 152 151 150 147 147 153 153 140 111 105
251 284 270 220 176 185 209 140 159 206 217 267 313 268 263 256 226 195 188 189 189 189 191 192 192 190 192 192 186 177 174 171 169 161 161 158 152 146 148 155 157 158 166 177
205 256 274 251 193 143 139 176 169 135 122 122 280 292 304 277 169 180 183 184 191 192 192 194 194 192 190 187 184 178 173 170 170 168 164 163 160 157 163 166 158 159 171 176
186 239 290 301 54 5 170 170 89 109 142 198 272 270 244 230 208 193 187 191 194 193 193 194 193 191 187 182 177 171 168 169 169 167 168 170 169 169 169 165 173 182 193 192
183 172 314 12 178 223 262 120 118 128 154 153 212 259 224 209 207 200 201 195 195 195 195 194 191 184 175 169 167 166 167 163 166 168 167 163 171 174 172 176 190 195 202 202
218 126 205 261 266 237 207 190 144 146 223 169 177 256 247 201 204 201 205 202 198 196 194 188 178 169 166 167 168 168 169 170 174 172 170 172 175 174 178 190 202 200 204 211
100 104 61 338 332 332 278 214 161 142 141 165 177 254 260 206 207 207 205 202 197 192 186 177 169 169 170 170 170 171 175 178 176 171 171 176 180 182 192 202 206 205 207 215
134 129 168 200 227 238 260 262 213 141 170 215 217 229 238 213 208 206 201 199 189 183 177 173 172 173 173 173 173 174 179 179 174 171 174 181 190 193 199 203 205 208 209 214
93 160 223 230 228 205 240 266 256 229 210 207 233 221 223 210 202 199 193 184 174 172 173 174 174 174 173 173 176 177 177 177 171 170 179 191 195 196 198 203 209 214 216 221
91 133 321 293 277 281 286 282 273 265 258 236 234 243 241 211 190 182 177 168 169 175 177 176 174 173 176 179 181 179 179 177 170 174 187 192 191 194 200 207 213 217 224 228
134 129 95 283 306 358 293 269 258 70 25 41 328 272 297 175 181 182 176 168 171 174 176 178 180 181 183 185 181 183 183 176 174 182 188 189 191 198 207 211 211 218 223 225
137 125 129 282 358 266 250 311 59 100 51 32 19 328 327 236 207 187 174 172 175 176 180 185 187 188 188 185 183 181 175 175 182 188 194 195 195 204 209 209 215 219 218 220
134 136 134 149 237 274 303 345 3 84 40 3 19 6 359 14 55 24 333 189 182 182 185 189 190 189 186 186 184 175 178 181 187 196 202 203 199 203 207 213 220 220 217 225
64 109 139 156 180 235 264 313 315 102 47 336 23 29 15 31 58 310 321 319 195 179 181 183 182 176 183 191 178 176 185 188 199 205 207 204 200 203 210 215 218 217 217 228
77 57 168 181 207 250 272 314 349 129 227 287 26 50 40 39 252 288 324 339 339 101 183 168 164 178 193 182 170 180 186 201 209 205 201 201 203 208 214 219 220 222 226 234
170 162 190 145 198 248 303 7 153 193 203 214 115 75 65 36 360 9 19 14 12 21 22 125 154 183 185 169 170 180 196 207 194 185 192 202 209 215 218 219 230 231 230 239
175 178 175 183 214 254 284 225 212 168 183 202 130 109 94 54 22 22 30 25 20 21 25 38 100 125 106 167 175 189 209 190 170 173 192 207 216 224 224 222 233 239 237 241
222 146 130 155 242 263 273 246 198 184 171 134 100 94 95 94 72 45 41 35 29 25 26 35 56 62 46 92 184 203 191 156 159 182 202 210 221 239 244 242 239 242 246 249
205 146 135 156 189 258 276 246 189 143 110 87 77 82 88 89 73 61 53 41 34 32 34 47 53 47 25 24 32 81 163 157 171 194 213 227 235 245 256 259 253 252 251 248
214 175 171 191 187 176 212 213 139 114 101 97 93 82 74 78 74 64 54 46 45 43 41 44 43 41 34 35 26 7 8 154 172 213 246 256 259 263 267 275 283 268 262 267
Height
1505 1510 1513 1506 1502 1504 1504 1510 1513 1509 1505 1509 1512 1513 1513 1513 1514 1516 1516 1517 1520 1522 1526 1528 1531 1533 1535 1537 1539 1541 1543 1544 1546 1547 1547 1548 1549 1550 1551 1551 1552 1552 1551 1551
1509 1510 1497 1492 1493 1496 1500 1509 1512 1508 1504 1510 1515 1516 1513 1513 1514 1515 1517 1518 1519 1522 1524 1527 1529 1532 1534 1536 1539 1541 1542 1544 1545 1546 1547 1548 1549 1549 1550 1550 1550 1550 1550 1549
1509 1499 1488 1489 1492 1497 1500 1506 1507 1509 1508 1511 1516 1522 1518 1515 1514 1515 1517 1517 1519 1521 1523 1526 1528 1531 1534 1536 1538 1540 1541 1543 1544 1545 1546 1547 1548 1548 1549 1549 1549 1549 1548 1548
1499 1490 1487 1489 1492 1494 1505 1497 1499 1503 1516 1525 1521 1536 1523 1517 1516 1515 1515 1517 1518 1521 1523 1525 1527 1530 1533 1535 1537 1539 1540 1542 1543 1544 1545 1545 1546 1546 1547 1547 1547 1547 1546 1546
1496 1489 1489 1491 1489 1489 1498 1496 1500 1506 1516 1526 1525 1533 1527 1518 1518 1515 1514 1515 1517 1519 1522 1524 1526 1529 1531 1534 1536 1537 1539 1540 1541 1542 1543 1543 1544 1544 1544 1545 1545 1545 1544 1544
1490 1486 1485 1485 1483 1485 1492 1501 1508 1516 1523 1536 1530 1533 1529 1518 1512 1510 1510 1513 1515 1517 1520 1522 1525 1528 1530 1532 1534 1536 1537 1538 1539 1540 1541 1541 1541 1542 1542 1542 1542 1542 1542 1542
1496 1489 1483 1481 1486 1487 1492 1512 1531 1535 1543 1541 1525 1526 1522 1503 1499 1501 1504 1507 1510 1514 1517 1520 1522 1525 1527 1529 1531 1533 1535 1536 1537 1538 1538 1539 1539 1539 1539 1540 1540 1540 1540 1540
1508 1506 1485 1481 1484 1491 1493 1505 1529 1539 1544 1538 1527 1526 1509 1493 1492 1494 1499 1503 1507 1510 1513 1515 1518 1521 1523 1526 1528 1530 1532 1533 1534 1535 1536 1536 1536 1537 1537 1537 1537 1537 1537 1538
1506 1502 1481 1478 1479 1483 1492 1500 1503 1523 1533 1540 1532 1520 1503 1491 1491 1493 1496 1501 1503 1506 1509 1511 1514 1517 1520 1522 1524 1526 1528 1530 1532 1533 1533 1534 1534 1534 1534 1534 1535 1535 1535 1535
1494 1501 1486 1479 1479 1481 1485 1491 1507 1521 1537 1542 1533 1526 1516 1498 1494 1492 1494 1496 1498 1502 1505 1507 1510 1513 1516 1519 1521 1524 1526 1527 1529 1530 1530 1531 1531 1532 1532 1532 1532 1532 1532 1532
1488 1498 1494 1487 1489 1490 1489 1492 1500 1513 1520 1535 1541 1525 1491 1489 1487 1488 1489 1490 1493 1496 1499 1502 1506 1509 1513 1516 1518 1521 1523 1524 1526 1527 1527 1528 1529 1529 1529 1529 1529 1529 1529 1530
1484 1495 1502 1493 1484 1481 1484 1488 1497 1513 1517 1520 1526 1515 1476 1478 1479 1481 1483 1486 1488 1491 1495 1498 1502 1506 1509 1512 1515 1517 1519 1521 1522 1524 1525 1525 1526 1526 1526 1526 1526 1527 1527 1527
1483 1496 1510 1507 1500 1488 1486 1484 1489 1500 1509 1517 1522 1507 1473 1474 1475 1477 1479 1481 1484 1488 1492 1495 1499 1502 1505 1509 1511 1514 1516 1518 1519 1520 1521 1522 1523 1523 1523 1523 1524 1524 1524 1524
1478 1492 1504 1508 1502 1492 1488 1482 1481 1493 1507 1508 1502 1492 1477 1474 1473 1473 1475 1477 1480 1484 1488 1491 1495 1498 1502 1505 1508 1510 1512 1514 1516 1517 1518 1519 1519 1520 1520 1521 1521 1521 1520 1520
1478 1489 1488 1486 1481 1482 1482 1479 1477 1483 1488 1494 1487 1481 1473 1468 1468 1469 1471 1474 1477 1481 1484 1487 1490 1494 1498 1502 1505 1507 1509 1511 1512 1513 1514 1515 1516 1517 1517 1517 1517 1517 1517 1517
1480 1487 1487 1485 1477 1478 1480 1475 1472 1473 1474 1476 1475 1474 1464 1462 1464 1467 1469 1472 1474 1477 1481 1484 1488 1491 1495 1498 1501 1503 1505 1507 1509 1510 1511 1512 1513 1513 1514 1514 1514 1514 1514 1513
1484 1488 1494 1495 1483 1482 1488 1476 1472 1475 1476 1476 1481 1476 1465 1463 1463 1464 1466 1469 1471 1474 1478 1481 1485 1488 1491 1494 1497 1499 1501 1504 1505 1506 1508 1509 1509 1510 1510 1510 1510 1510 1510 1509
1481 1489 1495 1498 1494 1500 1485 1470 1468 1474 1478 1475 1473 1470 1465 1463 1461 1463 1466 1467 1469 1472 1476 1479 1482 1485 1488 1491 1494 1496 1498 1500 1501 1503 1504 1505 1505 1506 1506 1506 1506 1506 1506 1505
1475 1485 1494 1500 1501 1492 1477 1471 1472 1475 1481 1477 1472 1469 1465 1462 1462 1465 1467 1468 1469 1471 1473 1476 1479 1482 1485 1487 1490 1492 1494 1496 1497 1498 1500 1501 1501 1502 1502 1502 1502 1502 1501 1500
1478 1481 1491 1497 1500 1499 1483 1472 1469 1473 1484 1478 1472 1470 1468 1465 1472 1472 1469 1470 1470 1470 1472 1474 1476 1479 1481 1483 1486 1488 1490 1491 1492 1494 1495 1497 1497 1498 1498 1498 1497 1497 1496 1495
1486 1489 1492 1495 1496 1488 1477 1472 1470 1484 1484 1477 1473 1471 1471 1472 1474 1472 1470 1470 1470 1470 1471 1472 1473 1475 1477 1480 1482 1484 1485 1487 1488 1490 1491 1492 1493 1493 1493 1493 1493 1492 1491 1490
1484 1490 1493 1495 1498 1492 1475 1473 1476 1478 1474 1474 1472 1472 1472 1472 1471 1469 1469 1470 1469 1469 1470 1470 1471 1472 1474 1476 1478 1479 1480 1482 1484 1485 1486 1487 1488 1489 1489 1488 1487 1486 1486 1484
1478 1480 1483 1486 1487 1477 1474 1473 1472 1472 1473 1473 1471 1472 1473 1474 1474 1473 1471 1471 1471 1470 1470 1471 1471 1472 1473 1474 1475 1476 1478 1480 1481 1481 1482 1483 1484 1484 1484 1483 1482 1481 1480 1478
1472 1472 1476 1480 1477 1475 1474 1474 1473 1473 1473 1474 1474 1474 1475 1476 1476 1475 1473 1472 1472 1471 1471 1471 1470 1470 1471 1472 1473 1475 1476 1477 1478 1478 1479 1479 1479 1479 1478 1477 1476 1475 1473 1472
1467 1470 1474 1477 1475 1475 1474 1474 1474 1474 1475 1475 1476 1476 1477 1477 1477 1476 1475 1474 1473 1472 1471 1471 1470 1470 1471 1471 1472 1473 1473 1474 1474 1475 1475 1475 1474 1474 1473 1471 1470 1468 1467 1466
1462 1465 1468 1470 1468 1471 1472 1473 1474 1475 1477 1478 1478 1478 1479 1479 1478 1478 1477 1476 1475 1474 1473 1472 1471 1471 1471 1470 1470 1470 1470 1471 1471 1471 1471 1470 1469 1468 1467 1465 1463 1461 1460 1458